Simultaneous Nadir Overpasses (SNOs) Predictions

Prediction of SNOs between GOES-15 and TERRA Satellite Orbit:

Table of predicted SNOs for the next 14.0 days since TLE Epoch: 4/4/2020
Index Date Time (GOES-15) GOES-15 Lat,Lon TERRA Lat,Lon Distance(km) Time Diff (sec)
1 04/04/2020 06:45:17 -0.29,-127.73 0.48,-124.19 402.10 80
2 04/04/2020 19:06:32 0.29,-127.76 0.63,-129.35 180.10 80
3 04/06/2020 18:56:59 0.29,-127.68 0.03,-126.38 148.27 80
4 04/07/2020 07:18:23 -0.30,-127.61 -1.12,-131.57 449.73 80
5 04/08/2020 18:44:46 0.29,-127.60 -0.58,-123.41 476.35 80
6 04/09/2020 07:06:10 -0.29,-127.53 -0.51,-128.60 121.85 80
7 04/11/2020 06:51:17 -0.29,-127.44 0.10,-125.63 205.46 80
8 04/11/2020 19:12:32 0.29,-127.47 1.01,-130.78 377.67 80
9 04/13/2020 19:00:19 0.28,-127.37 0.40,-127.82 51.03 80
10 04/15/2020 18:50:46 0.28,-127.28 -0.22,-124.85 275.41 80
11 04/16/2020 07:12:09 -0.28,-127.20 -0.86,-130.04 322.68 80




NCC Satellite Simultaneous Nadir Overpasses (SNOs) Prediction Service
